Regional Weather Roundup
Issued by NWS

Home | Current Version | Previous Version | Text Only | Print | Product List | Glossary On
Versions: 1 2 3 4 5 6 7 8 9 10 11 12 13 14 15 16 17 18 19 20 21 22 23 24 25 26 27
000
ASUS44 KBMX 211210
RWRAL

ALABAMA REGIONAL WEATHER ROUNDUP
NATIONAL WEATHER SERVICE BIRMINGHAM AL
700 AM CDT MON AUG 21 2017

NOTE: "FAIR" INDICATES FEW OR NO CLOUDS BELOW 12,000 FEET
WITH NO SIGNIFICANT WEATHER AND/OR OBSTRUCTIONS TO VISIBILITY.

THE REMARK "TC" DENOTES TEMPERATURE IN DEGREES CELSIUS.

ALZ001>011-014-016>018-020-211300-
NORTH ALABAMA

CITY           SKY/WX    TMP DP  RH WIND       PRES   REMARKS
MUSCLE SHOALS  PTCLDY    72  69  90 CALM      30.16R
6HR MIN TEMP:  69; 6HR MAX TEMP:  73;

HUNTSVILLE     PTCLDY    74  73  97 E5        30.16R
6HR MIN TEMP:  72; 6HR MAX TEMP:  76;

DECATUR        CLEAR     72  72 100 CALM      30.16R FOG
6HR MIN TEMP:  69; 6HR MAX TEMP:  73;

HALEYVILLE     FAIR      70  70 100 CALM      30.19R FOG
6HR MIN TEMP:  69; 6HR MAX TEMP:  72;

GADSDEN        CLEAR     70  70 100 CALM      30.17R
6HR MIN TEMP:  68; 6HR MAX TEMP:  72;

$$

ALZ012-013-022-023-030>036-040>044-211300-
WEST CENTRAL ALABAMA

CITY           SKY/WX    TMP DP  RH WIND       PRES   REMARKS
TUSCALOOSA     PTCLDY    75  75 100 CALM      30.12R FOG
6HR MIN TEMP:  74; 6HR MAX TEMP:  77;

DEMOPOLIS        N/A    N/A N/A N/A CALM      30.11R HAZE
$$

ALZ015-024>026-033>036-041>044-211300-
CENTRAL ALABAMA

CITY           SKY/WX    TMP DP  RH WIND       PRES   REMARKS
BIRMINGHAM     MOCLDY    75  72  90 CALM      30.17R
6HR MIN TEMP:  73; 6HR MAX TEMP:  76;

MONTGOMERY     CLEAR     78  72  81 N3        30.12R
6HR MIN TEMP:  74; 6HR MAX TEMP:  79;

SHELBY CO ARPT CLEAR     76  74  93 CALM      30.15R
6HR MIN TEMP:  74; 6HR MAX TEMP:  76;

MAXWELL AFB    CLEAR     76  74  96 N3        30.11R
6HR MIN TEMP:  74; 6HR MAX TEMP:  78;

GREENVILLE     FAIR      74  69  85 N3        30.11S
6HR MIN TEMP:  73; 6HR MAX TEMP:  76;

SELMA          NOT AVBL
PRATTVILLE       N/A     72  72 100 CALM      30.11S
6HR MIN TEMP:  71; 6HR MAX TEMP:  74;

BESSEMER       FAIR      72  71  97 CALM      30.16R
6HR MIN TEMP:  72; 6HR MAX TEMP:  78;

TALLADEGA      FAIR     N/A N/A N/A MISG      30.16S
PELL CITY      PTSUNNY   72  72 100 CALM      30.15S FOG
MARION         FAIR      73  73 100 CALM      30.11S FOG
6HR MIN TEMP:  72; 6HR MAX TEMP:  76;

SYLACAUGA      FAIR      72  72 100 CALM      30.15S FOG
6HR MIN TEMP:  72; 6HR MAX TEMP:  74;

$$

ALZ019-021-028-029-037-038-045>048-211300-
EAST CENTRAL ALABAMA

CITY           SKY/WX    TMP DP  RH WIND       PRES   REMARKS
ANNISTON       CLEAR     73  70  90 E5        30.16R
6HR MIN TEMP:  72; 6HR MAX TEMP:  75;

ALEXANDER CITY CLEAR     73  70  92 CALM      30.16R
6HR MIN TEMP:  72; 6HR MAX TEMP:  75;

AUBURN         CLEAR     74  71  91 NE7       30.16R
6HR MIN TEMP:  72; 6HR MAX TEMP:  79;

$$

ALZ051>064-211300-
SOUTHWEST ALABAMA

CITY           SKY/WX    TMP DP  RH WIND       PRES   REMARKS
MOBILE         PTCLDY    78  75  90 N5        30.10S
6HR MIN TEMP:  77; 6HR MAX TEMP:  79;

BROOKLEY FIELD PTCLDY    80  79  96 NW5       30.10S
6HR MIN TEMP:  79; 6HR MAX TEMP:  81;

EVERGREEN      CLEAR     73  72  96 CALM      30.11R FOG
6HR MIN TEMP:  72; 6HR MAX TEMP:  75;

$$

ALZ049-050-065>069-211300-
SOUTHEAST ALABAMA

CITY           SKY/WX    TMP DP  RH WIND       PRES   REMARKS
DOTHAN         PTCLDY    76  75  97 CALM      30.15R
6HR MIN TEMP:  74; 6HR MAX TEMP:  79;

OZARK          CLEAR     75  73  93 CALM      30.11R
6HR MIN TEMP:  74; 6HR MAX TEMP:  78;

TROY           CLEAR     72  72 100 CALM      30.12R
6HR MIN TEMP:  70; 6HR MAX TEMP:  75;

EUFAULA        FAIR      76  74  93 CALM      30.11R
6HR MIN TEMP:  73; 6HR MAX TEMP:  76;

$$




USA.gov is the U.S. government's official web portal to all federal, state and local government web resources and services.